TimeEST,TemperatureF,Dew PointF,Humidity,Sea Level PressureIn,VisibilityMPH,Wind Direction,Wind SpeedMPH,Gust SpeedMPH,PrecipitationIn,Events,Conditions,WindDirDegrees,DateUTC
12:15 AM,21.2,17.6,86,29.96,10.0,Calm,Calm,-,N/A,,Scattered Clouds,0,2013-02-15 05:15:00
12:35 AM,21.2,10.4,63,29.96,9.0,Calm,Calm,-,N/A,,Partly Cloudy,0,2013-02-15 05:35:00
12:55 AM,21.2,19.4,93,29.96,10.0,WSW,3.5,-,N/A,,Scattered Clouds,240,2013-02-15 05:55:00
1:15 AM,21.2,10.4,63,29.95,10.0,Calm,Calm,-,N/A,,Scattered Clouds,0,2013-02-15 06:15:00
1:35 AM,19.4,17.6,93,29.96,10.0,Calm,Calm,-,N/A,,Clear,0,2013-02-15 06:35:00
1:55 AM,17.6,12.2,79,29.96,8.0,Calm,Calm,-,N/A,,Clear,0,2013-02-15 06:55:00
2:15 AM,17.6,10.4,73,29.96,7.0,Calm,Calm,-,N/A,,Clear,0,2013-02-15 07:15:00
2:35 AM,15.8,12.2,86,29.95,5.0,Calm,Calm,-,N/A,,Clear,0,2013-02-15 07:35:00
2:55 AM,14.0,6.8,73,29.96,7.0,WSW,3.5,-,N/A,,Clear,240,2013-02-15 07:55:00
3:15 AM,14.0,10.4,86,29.95,7.0,Calm,Calm,-,N/A,,Clear,0,2013-02-15 08:15:00
3:35 AM,14.0,6.8,73,29.95,7.0,Calm,Calm,-,N/A,,Clear,0,2013-02-15 08:35:00
3:55 AM,14.0,12.2,93,29.95,7.0,Calm,Calm,-,N/A,,Clear,0,2013-02-15 08:55:00
4:15 AM,12.2,6.8,79,29.95,7.0,Calm,Calm,-,N/A,,Clear,0,2013-02-15 09:15:00
4:35 AM,12.2,10.4,92,29.96,8.0,Calm,Calm,-,N/A,,Clear,0,2013-02-15 09:35:00
4:55 AM,12.2,8.6,85,29.95,8.0,Calm,Calm,-,N/A,,Partly Cloudy,0,2013-02-15 09:55:00
5:15 AM,12.2,12.2,100,29.95,8.0,Calm,Calm,-,N/A,,Mostly Cloudy,0,2013-02-15 10:15:00
5:35 AM,15.8,8.6,73,29.95,9.0,Calm,Calm,-,N/A,,Overcast,0,2013-02-15 10:35:00
5:55 AM,15.8,15.8,100,29.95,8.0,Calm,Calm,-,N/A,,Overcast,0,2013-02-15 10:55:00
6:15 AM,17.6,8.6,68,29.94,10.0,Calm,Calm,-,N/A,,Mostly Cloudy,0,2013-02-15 11:15:00
6:35 AM,15.8,15.8,100,29.95,8.0,Calm,Calm,-,N/A,,Mostly Cloudy,0,2013-02-15 11:35:00
6:55 AM,17.6,12.2,79,29.95,8.0,SSW,4.6,-,N/A,,Overcast,200,2013-02-15 11:55:00
7:15 AM,26.6,21.2,80,29.95,9.0,SSW,4.6,-,N/A,,Overcast,200,2013-02-15 12:15:00
7:35 AM,26.6,21.2,80,29.95,9.0,SW,5.8,-,N/A,,Overcast,220,2013-02-15 12:35:00
7:55 AM,28.4,21.2,74,29.95,8.0,SSW,5.8,-,N/A,,Overcast,210,2013-02-15 12:55:00
8:15 AM,28.4,24.8,86,29.95,8.0,SSW,5.8,-,N/A,,Mostly Cloudy,210,2013-02-15 13:15:00
8:35 AM,30.2,21.2,69,29.96,8.0,SW,5.8,-,N/A,,Partly Cloudy,220,2013-02-15 13:35:00
8:55 AM,30.2,24.8,80,29.96,8.0,SW,5.8,-,N/A,,Clear,230,2013-02-15 13:55:00
9:15 AM,33.8,24.8,70,29.96,7.0,SSW,6.9,-,N/A,,Mostly Cloudy,210,2013-02-15 14:15:00
9:35 AM,33.8,24.8,70,29.96,8.0,SSW,6.9,-,N/A,,Overcast,200,2013-02-15 14:35:00
9:55 AM,33.8,28.4,81,29.96,8.0,SSW,6.9,-,N/A,,Overcast,200,2013-02-15 14:55:00
10:15 AM,35.6,24.8,65,29.96,8.0,SW,8.1,-,N/A,,Overcast,230,2013-02-15 15:15:00
10:55 AM,37.4,28.4,70,29.95,9.0,SW,9.2,-,N/A,,Mostly Cloudy,220,2013-02-15 15:55:00
11:15 AM,39.2,24.8,56,29.94,9.0,SW,10.4,-,N/A,,Partly Cloudy,230,2013-02-15 16:15:00
11:35 AM,41.0,24.8,53,29.94,9.0,South,6.9,-,N/A,,Clear,180,2013-02-15 16:35:00
11:55 AM,42.8,24.8,49,29.92,10.0,SSW,8.1,-,N/A,,Clear,210,2013-02-15 16:55:00
12:15 PM,42.8,26.6,53,29.91,10.0,SSW,8.1,-,N/A,,Clear,210,2013-02-15 17:15:00
12:55 PM,44.6,28.4,53,29.89,10.0,SW,10.4,-,N/A,,Clear,220,2013-02-15 17:55:00
1:15 PM,44.6,26.6,49,29.89,10.0,SW,9.2,17.3,N/A,,Clear,220,2013-02-15 18:15:00
1:35 PM,46.4,26.6,46,29.89,10.0,SW,10.4,-,N/A,,Clear,230,2013-02-15 18:35:00
2:15 PM,48.2,28.4,46,29.88,10.0,South,10.4,-,N/A,,Clear,180,2013-02-15 19:15:00
2:35 PM,48.2,28.4,46,29.88,10.0,SSW,5.8,-,N/A,,Partly Cloudy,200,2013-02-15 19:35:00
2:55 PM,48.2,26.6,43,29.88,10.0,SSW,6.9,-,N/A,,Clear,200,2013-02-15 19:55:00
3:15 PM,48.2,26.6,43,29.87,10.0,SSW,6.9,-,N/A,,Clear,210,2013-02-15 20:15:00
3:35 PM,48.2,26.6,43,29.87,10.0,SSW,6.9,-,N/A,,Clear,200,2013-02-15 20:35:00
3:55 PM,48.2,26.6,43,29.87,10.0,SSW,5.8,-,N/A,,Clear,200,2013-02-15 20:55:00
4:15 PM,48.2,26.6,43,29.87,10.0,SSW,6.9,-,N/A,,Clear,210,2013-02-15 21:15:00
4:35 PM,44.6,26.6,49,29.87,10.0,SW,6.9,-,N/A,,Clear,220,2013-02-15 21:35:00
4:55 PM,46.4,23.0,40,29.87,10.0,South,4.6,-,N/A,,Scattered Clouds,190,2013-02-15 21:55:00
5:15 PM,44.6,26.6,49,29.88,10.0,SSW,4.6,-,N/A,,Partly Cloudy,210,2013-02-15 22:15:00
5:35 PM,42.8,26.6,53,29.88,10.0,SSW,3.5,-,N/A,,Partly Cloudy,200,2013-02-15 22:35:00
5:55 PM,35.6,26.6,70,29.89,10.0,East,3.5,-,N/A,,Clear,100,2013-02-15 22:55:00
6:15 PM,37.4,28.4,70,29.89,10.0,Calm,Calm,-,N/A,,Clear,0,2013-02-15 23:15:00
6:35 PM,33.8,26.6,75,29.89,10.0,South,3.5,-,N/A,,Clear,190,2013-02-15 23:35:00
6:55 PM,33.8,24.8,70,29.89,10.0,Calm,Calm,-,N/A,,Scattered Clouds,0,2013-02-15 23:55:00
7:15 PM,32.0,24.8,75,29.90,10.0,Calm,Calm,-,N/A,,Mostly Cloudy,0,2013-02-16 00:15:00
7:35 PM,30.2,24.8,80,29.91,10.0,SW,3.5,-,N/A,,Mostly Cloudy,220,2013-02-16 00:35:00
7:55 PM,30.2,23.0,75,29.91,10.0,SW,3.5,-,N/A,,Partly Cloudy,230,2013-02-16 00:55:00
8:15 PM,28.4,21.2,74,29.91,10.0,Calm,Calm,-,N/A,,Clear,0,2013-02-16 01:15:00
8:35 PM,28.4,24.8,86,29.91,10.0,Calm,Calm,-,N/A,,Clear,0,2013-02-16 01:35:00
8:55 PM,26.6,24.8,93,29.92,10.0,Calm,Calm,-,N/A,,Clear,0,2013-02-16 01:55:00
9:15 PM,24.8,23.0,93,29.92,10.0,SW,3.5,-,N/A,,Clear,220,2013-02-16 02:15:00
9:35 PM,24.8,17.6,74,29.92,10.0,Calm,Calm,-,N/A,,Clear,0,2013-02-16 02:35:00
9:55 PM,24.8,19.4,80,29.92,8.0,SW,3.5,-,N/A,,Clear,220,2013-02-16 02:55:00
10:15 PM,24.8,21.2,86,29.93,10.0,Calm,Calm,-,N/A,,Clear,0,2013-02-16 03:15:00
10:35 PM,23.0,19.4,86,29.93,7.0,Calm,Calm,-,N/A,,Partly Cloudy,0,2013-02-16 03:35:00
10:55 PM,23.0,23.0,100,29.92,8.0,Calm,Calm,-,N/A,,Partly Cloudy,0,2013-02-16 03:55:00
11:15 PM,19.4,12.2,74,29.92,7.0,WSW,3.5,-,N/A,,Clear,250,2013-02-16 04:15:00
11:35 PM,23.0,19.4,86,29.93,7.0,Calm,Calm,-,N/A,,Mostly Cloudy,0,2013-02-16 04:35:00
11:55 PM,24.8,24.8,100,29.92,8.0,Calm,Calm,-,N/A,,Overcast,0,2013-02-16 04:55:00